STARLINK-4768 (53806 NORAD) Tracking and Keplerian Element Data

This shows tracking and keplerian element data for the satellite.

Feedback or suggestion? Click here.




ElementValue
Catalog53806
NameSTARLINK-4768
Epoch Orbit130
Epoch Day324.91667824
Epoch Year2022
RAAN276.425
Inclination53.2148
Eccentricity0.0003618
Argument of Perigee8.3257
Mean Anonmoly273.1259
Mean Motion15.73243616
Decay Rate-0.00078057
L11 53806U 22111AK 22324.91667824 -.00078057 00000+0 -55560-3 0 9997
L22 53806 53.2148 276.4250 0003618 8.3257 273.1259 15.73243616 1307



Live tracking and technical data element details for STARLINK-4768 (NORAD 53806). STARLINK-4768 can be tracked NOW for your location showing map with azimuth and elevation plus other details from your city location.







IsCatalogInMostPopularTable: catalog: 53806, numindb: -1

Insert: records affected: 1


GetName: 53806 STARLINK-4768

Hit Count: inserted at: Thu, 08 Dec 2022 08:50:54 GMT